Вернуться в каталог

CZ-4B R/B

АктивенPO
NORAD 38039·ROCKET BODY·🇨🇳 China

Запущен Dec 22, 2011 с Taiyuan Satellite Launch Center

Loading…

Ближайшие Пролёты (ближайшие 24 часа)

TLE

СвежийSource: Space-Track

Эпоха: Sep 14, 2026, 13:40 UTC

1 38039U 11079B   26257.57005635  .00003127  00000-0  13590-3 0  9998
2 38039  98.4564 106.9720 0122525  58.7931 302.5239 15.16635263803379

Отслеживайте CZ-4B R/B в реальном времени с AllMySat

Download on the App Store